Lexington Weather

Lexington, Massachusetts, USA

34°F
4/16/2021 10:21am 
  • Lexington Conditions: Snow, Fog, Overcast
  • Temperature: 34.0°F / 1.1°CColder 0.2°F than last hour.
  • Dew Point: 32.7°FDecreased 0.2°Fsince last hour.
  • Relative Humidity: 95
  • Wind: Calm, 10-min avg: Calm, gust: None
  • Barometer: 29.49 in Steady
  • Visibility: ½ mile
  • Snow Today: 1.3 in
  •   

Regional Weather Roundup
for Boston / Norton, MA

        
000
ASUS41 KBOX 111905
RWRBOX

REGIONAL WEATHER ROUNDUP
NATIONAL WEATHER SERVICE BOSTON/NORTON MA
300 PM EDT SUN APR 11 2021

NOTE:  "FAIR" INDICATES FEW OR NO CLOUDS BELOW 12,000 FEET WITH NO 
SIGNIFICANT WEATHER AND/OR OBSTRUCTIONS TO VISIBILITY.

MAZALL-112000-
EASTERN MASSACHUSETTS
  
CITY           SKY/WX    TMP DP  RH WIND       PRES   REMARKS
BOSTON         CLOUDY    48  41  76 NE18      29.78F                  
BEVERLY        CLOUDY    46  40  79 NE15G21   29.78S                  
LAWRENCE       CLOUDY    45  40  82 NE13      29.80S                  
BEDFORD        CLOUDY    48  41  76 NE14      29.76F                  
BLUE HILL        N/A     42  41  96 NE14G26   29.74S                  
NORWOOD        CLOUDY    47  41  80 NE14G22   29.76F                  
MARSHFIELD     CLOUDY    46  45  93 NE10G20   29.77S                  
PLYMOUTH       CLOUDY    46  42  86 NE17G24   29.73F                  
TAUNTON        CLOUDY    47  42  83 VRB7      29.74F                  
NEW BEDFORD    CLOUDY    47  44  90 NE13      29.73S                  
$$

MAZALL-112000-
CAPE COD AND THE ISLANDS
  
CITY           SKY/WX    TMP DP  RH WIND       PRES   REMARKS
FALMOUTH       FOG       45  46 100 NE18G28   29.72S VSB 1            
HYANNIS        CLOUDY    49  45  86 NE8       29.71S                  
CHATHAM        CLOUDY    47  42  83 NE14G22   29.74R                  
PROVINCETOWN   CLOUDY    46  43  89 E14G22    29.76F                  
NANTUCKET      CLOUDY    47  46  97 NE14      29.70F FOG              
MARTHAS VNYRD  CLOUDY    49  47  93 NE17G26   29.71S FOG              
$$
 
MAZALL-112000-
CENTRAL AND WESTERN MASSACHUSETTS
  
CITY           SKY/WX    TMP DP  RH WIND       PRES   REMARKS
WORCESTER      CLOUDY    45  41  86 E14G22    29.72F                  
FITCHBURG      CLOUDY    48  42  80 VRB5      29.77S                  
ORANGE         MOSUNNY   55  42  61 E16G24    29.72R                  
SPRINGFIELD    CLOUDY    60  44  55 E17       29.67R                  
WESTFIELD      CLOUDY    60  47  61 VRB3      29.66F                  
NORTH ADAMS    MOSUNNY   64  46  52 E13       29.63S                  
PITTSFIELD     MOSUNNY   59  48  67 E12       29.63R                  
$$
 
RIZALL-112000-
RHODE ISLAND
  
CITY           SKY/WX    TMP DP  RH WIND       PRES   REMARKS
PROVIDENCE     CLOUDY    49  43  80 NE13      29.74R                  
NEWPORT        CLOUDY    49  44  83 NE18      29.70F                  
BLOCK ISLAND   CLOUDY    47  45  93 NE13G20   29.70S                  
SMITHFIELD     CLOUDY    45  45 100 NE9       29.74S                  
WESTERLY       CLOUDY    50  44  80 NE13      29.69R                  
$$
 
CTZALL-112000-
CONNECTICUT
  
CITY           SKY/WX    TMP DP  RH WIND       PRES   REMARKS
BRADLEY INTL   CLOUDY    61  46  57 E7        29.66F                  
HARTFORD       CLOUDY    59  47  64 E7        29.66S                  
BRIDGEPORT     LGT RAIN  50  49  96 E12       29.63F FOG              
DANBURY        LGT RAIN  60  55  83 SE12      29.62F                  
GROTON         CLOUDY    56  46  69 E13       29.66S                  
NEW HAVEN      CLOUDY    53  49  86 E12G22    29.64F FOG              
CHESTER        CLOUDY    59  50  72 E9        29.65S                  
MERIDEN        CLOUDY    62  50  64 E9        29.64S                  
WILLIMANTIC    MOSUNNY   54  44  69 E15G25    29.69R                  
OXFORD         CLOUDY    60  58  92 E9        29.64S                  
$$

MEZ002-015-021-024-NHZ003-005-008-011-012-014-VTZ005-008-112000-
NORTHERN NEW ENGLAND
  
CITY           SKY/WX    TMP DP  RH WIND       PRES   REMARKS
PORTLAND ME    MOSUNNY   49  40  71 E9        29.79F                  
BANGOR ME      MOSUNNY   58  28  32 VRB5      29.77F                  
CONCORD NH     MOSUNNY   56  39  53 SE10G18   29.75F                  
MANCHESTER NH  PTSUNNY   51  39  63 E10G17    29.76F                  
NASHUA NH      CLOUDY    48  43  82 E7        29.79S                  
PORTSMOUTH NH  PTSUNNY   47  38  69 E7        29.80F                  
JAFFREY NH     CLOUDY    50  41  71 MISG      29.74S                  
KEENE NH       SUNNY     56  43  61 NE10      29.71R                  
BURLINGTON VT  PTSUNNY   72  45  37 NW13      29.60F                  
MT. WASHINGTON PTSUNNY   41  37  87 N14         N/A                   
$$

NYZ052-076-112000-
EASTERN NEW YORK
  
CITY           SKY/WX    TMP DP  RH WIND       PRES   REMARKS
ALBANY         CLOUDY    68  52  56 SE12      29.57F                  
NEW YORK CITY  LGT RAIN  52  49  89 NE17      29.58F VSB 1/4          
$$
 
ANZALL-112000-
MARINE OBSERVATIONS
  
STATION/POSITION TIME  TEMP    WIND        PRES    VSBY  WAVE
                       AIR SEA DIR/SP/G                  HT/PER
                 (UTC) (F)     (DEG/KT/KT) (MB)    (MI)  (FT/S)
BOSTON BUOY      1850   43 44   50/ 16/ 19 1008.5F         5/ 6
BUZZARDS BAY     1800           40/ 16/ 17 1007.2S
NANTUCKET SOUND  1840      47                N/A
MASS BAY-STELLWA NOT AVBL
ISLE OF SHOALS   1800   42      40/ 16/ 18 1008.6S
S OF BLOCK IS    1826      46                N/A           4/12
$$

......................KEY.........................
  SKY/WX - SKY CONDITION/PRESENT WEATHER
  TMP    - TEMPERATURE IN FAHRENHEIT
  DWPT   - DEWPOINT IN FAHRENHEIT
  RH     - RELATIVE HUMIDITY IN PERCENT
  WIND   - DIRECTION AND SPEED IN MPH
  PRES   - MEAN SEA LEVEL PRESSURE IN INCHES OF HG
  WCI    - WIND CHILL INDEX
  VSB    - VISIBILITY IN MILES
  HX     - HEAT INDEX
  TC     - TEMPERATURE IN CELSIUS
  VRB    - VARIABLE WIND DIRECTION
  N/A    - NOT AVAILABLE
  
      

Other recent Regional Weather Roundups

Fri Apr 16, 10:05am

Fri Apr 16, 9:04am

Fri Apr 16, 8:04am

Fri Apr 16, 7:04am

Fri Apr 16, 6:04am

Fri Apr 16, 5:04am

Fri Apr 16, 4:04am

Fri Apr 16, 3:04am

Fri Apr 16, 2:04am

Fri Apr 16, 1:04am

Fri Apr 16, 12:04am

Thu Apr 15, 11:05pm

Thu Apr 15, 10:04pm

Thu Apr 15, 9:04pm

Thu Apr 15, 8:04pm

Thu Apr 15, 7:05pm

Thu Apr 15, 6:04pm

Thu Apr 15, 5:05pm

Thu Apr 15, 4:04pm

Thu Apr 15, 3:05pm

Thu Apr 15, 2:04pm

Thu Apr 15, 1:05pm

Thu Apr 15, 12:04pm

Thu Apr 15, 11:04am

Thu Apr 15, 10:05am

Thu Apr 15, 9:04am

Thu Apr 15, 8:04am

Thu Apr 15, 7:04am

Thu Apr 15, 6:04am

Thu Apr 15, 5:04am

Thu Apr 15, 4:04am

Thu Apr 15, 3:04am

Thu Apr 15, 2:04am

Thu Apr 15, 1:04am

Thu Apr 15, 12:04am

Wed Apr 14, 11:04pm

Wed Apr 14, 10:04pm

Wed Apr 14, 9:04pm

Wed Apr 14, 8:04pm

Wed Apr 14, 7:04pm

Wed Apr 14, 6:04pm

Wed Apr 14, 5:05pm

Wed Apr 14, 4:04pm

Wed Apr 14, 3:05pm

Wed Apr 14, 2:04pm

Wed Apr 14, 1:05pm

Wed Apr 14, 12:04pm

Wed Apr 14, 11:04am

Wed Apr 14, 10:04am

Wed Apr 14, 9:04am

Wed Apr 14, 8:04am

Wed Apr 14, 7:04am

Wed Apr 14, 6:04am

Wed Apr 14, 5:04am

Wed Apr 14, 4:04am

Wed Apr 14, 3:04am

Wed Apr 14, 2:04am

Wed Apr 14, 1:04am

Wed Apr 14, 12:04am

Tue Apr 13, 11:04pm

Tue Apr 13, 10:05pm

Tue Apr 13, 9:05pm

Tue Apr 13, 8:05pm

Tue Apr 13, 7:04pm

Tue Apr 13, 6:04pm

Tue Apr 13, 5:05pm

Tue Apr 13, 4:04pm

Tue Apr 13, 3:04pm

Tue Apr 13, 2:05pm

Tue Apr 13, 1:04pm

Tue Apr 13, 12:05pm

Tue Apr 13, 11:05am

Tue Apr 13, 10:04am

Tue Apr 13, 9:04am

Tue Apr 13, 8:04am

Tue Apr 13, 7:04am

Tue Apr 13, 6:04am

Tue Apr 13, 5:04am

Tue Apr 13, 4:04am

Tue Apr 13, 3:04am

Tue Apr 13, 2:04am

Tue Apr 13, 1:04am

Tue Apr 13, 12:05am

Mon Apr 12, 11:04pm

Mon Apr 12, 10:04pm

Mon Apr 12, 9:04pm

Mon Apr 12, 8:04pm

Mon Apr 12, 7:05pm

Mon Apr 12, 6:04pm

Mon Apr 12, 5:04pm

Mon Apr 12, 4:04pm

Mon Apr 12, 3:05pm

Mon Apr 12, 2:04pm

Mon Apr 12, 1:05pm

Mon Apr 12, 12:04pm

Mon Apr 12, 11:04am

Mon Apr 12, 10:04am

Mon Apr 12, 9:04am

Mon Apr 12, 8:04am

Mon Apr 12, 7:04am

Mon Apr 12, 6:04am

Mon Apr 12, 5:04am

Mon Apr 12, 4:04am

Mon Apr 12, 3:04am

Mon Apr 12, 2:04am

Mon Apr 12, 1:05am

Mon Apr 12, 12:04am

Sun Apr 11, 11:04pm

Sun Apr 11, 10:04pm

Sun Apr 11, 9:04pm

Sun Apr 11, 8:04pm

Sun Apr 11, 7:04pm

Sun Apr 11, 6:05pm

Sun Apr 11, 5:05pm

Sun Apr 11, 4:04pm

Sun Apr 11, 2:05pm

Sun Apr 11, 1:05pm

Sun Apr 11, 12:04pm

Sun Apr 11, 11:05am

Sun Apr 11, 10:05am

Sun Apr 11, 9:04am

Sun Apr 11, 8:04am

Sun Apr 11, 7:04am

Sun Apr 11, 6:04am

Sun Apr 11, 5:04am

Sun Apr 11, 4:04am

Sun Apr 11, 3:04am

Sun Apr 11, 2:04am

Sun Apr 11, 1:05am

Sun Apr 11, 12:04am

Sat Apr 10, 11:05pm

Sat Apr 10, 10:04pm

Sat Apr 10, 9:04pm

Sat Apr 10, 8:04pm

Sat Apr 10, 7:05pm

Sat Apr 10, 6:04pm

Sat Apr 10, 5:04pm

Sat Apr 10, 4:04pm

Sat Apr 10, 3:04pm

Sat Apr 10, 2:05pm

Sat Apr 10, 1:04pm

Sat Apr 10, 12:04pm

Sat Apr 10, 11:04am

Sat Apr 10, 10:04am

Sat Apr 10, 9:04am

Sat Apr 10, 8:04am

Sat Apr 10, 7:04am

Sat Apr 10, 6:04am

Sat Apr 10, 5:04am

Sat Apr 10, 4:04am

Sat Apr 10, 3:04am

Sat Apr 10, 2:04am

Sat Apr 10, 1:05am

Sat Apr 10, 12:04am

Fri Apr 9, 11:04pm

Fri Apr 9, 10:05pm

Fri Apr 9, 9:04pm

Fri Apr 9, 8:05pm

Fri Apr 9, 7:05pm

Fri Apr 9, 6:04pm

Fri Apr 9, 5:04pm

Fri Apr 9, 4:05pm

Fri Apr 9, 3:05pm

Fri Apr 9, 2:04pm

Fri Apr 9, 1:04pm

Fri Apr 9, 12:04pm

Fri Apr 9, 11:05am

Meta data:

ID: 3031c4d6-e9f2-487e-bf9d-f54740ee2647
Link: https://api.weather.gov/products/3031c4d6-e9f2-487e-bf9d-f54740ee2647